TIANMU-1 06

Last updated on Sat Aug 15 2026 00:02:40 GMT+0000 (Coordinated Universal Time)

1 55976U 23039D 26226.58614098 .00009402 00000+0 17360-3 0 9992 2 55976 97.5249 43.2104 0001651 243.4627 116.6454 15.49324514189884
UTC large
Height (km)
Speed (km/s)
/
Latitude / Longitude
Inclination (degrees)
Orbital Period (minutes)
Azimuth
Elevation
Range (km)
Doppler Factor

Next 0 passes for location: London (51.5072 / 0.1276)

No passes found over London.
TIANMU-1 06